Simultaneous Nadir Overpasses (SNOs) Predictions

Prediction of SNOs between GOES-15 and TERRA Satellite Orbit:

Table of predicted SNOs for the next 14.0 days since TLE Epoch: 6/16/2014
Index Date Time (GOES-15) GOES-15 Lat,Lon TERRA Lat,Lon Distance(km) Time Diff (sec)
1 06/17/2014 07:22:40 0.07,-135.42 0.50,-133.51 218.72 80
2 06/17/2014 19:46:33 -0.05,-135.42 0.66,-138.65 367.42 80
3 06/19/2014 19:34:21 -0.06,-135.43 -0.00,-135.69 30.06 80
4 06/21/2014 19:19:29 -0.06,-135.43 -0.61,-132.72 306.99 80
5 06/22/2014 07:43:32 0.05,-135.43 -0.49,-137.92 282.32 80
6 06/24/2014 07:28:39 0.05,-135.43 0.14,-134.95 54.20 80
7 06/26/2014 07:16:26 0.06,-135.42 0.78,-131.99 390.23 80
8 06/26/2014 19:40:21 -0.04,-135.41 0.31,-137.15 196.33 80
9 06/28/2014 19:25:27 -0.05,-135.40 -0.29,-134.17 139.25 80
10 06/29/2014 07:49:31 0.03,-135.40 -0.80,-139.37 450.24 80




NCC Satellite Simultaneous Nadir Overpasses (SNOs) Prediction Service
